This is the latest recevied weather packets stored in our database for station/object N0QWM. If no packets are shown the sender has not sent any weather packets the latest 10 day(s).
| Time | Temp. | Humidity | Pressure | Rain* | Wind** | Luminosity | Snow |
|---|---|---|---|---|---|---|---|
| 1778354681 | 23.33° C | 76% | 1016.8 hPa | 0 mm | - | 276 W/m² | - |
| 1778354377 | 23.33° C | 78% | 1016.8 hPa | 0 mm | - | 295 W/m² | - |
| 1778354072 | 23.33° C | 75% | 1016.9 hPa | 0 mm | - | 247 W/m² | - |
| 1778353768 | 22.78° C | 77% | 1017.1 hPa | 0 mm | - | 288 W/m² | - |
| 1778353466 | 23.33° C | 78% | 1017.1 hPa | 0 mm | - | 255 W/m² | - |
| 1778353163 | 22.78° C | 78% | 1016.9 hPa | 0 mm | - | 388 W/m² | - |
| 1778352861 | 22.78° C | 78% | 1017.1 hPa | 0 mm | - | 631 W/m² | - |
| 1778352557 | 22.78° C | 80% | 1016.9 hPa | 0 mm | - | 638 W/m² | - |
| 1778352254 | 22.22° C | 82% | 1017 hPa | 0 mm | - | 373 W/m² | - |
| 1778351951 | 22.22° C | 81% | 1017.2 hPa | 0 mm | - | 515 W/m² | - |
| 1778351645 | 21.67° C | 84% | 1017.3 hPa | 0 mm | - | 298 W/m² | - |
| 1778351342 | 22.22° C | 83% | 1017.2 hPa | 0 mm | - | 316 W/m² | - |
| 1778351039 | 21.67° C | 83% | 1017.3 hPa | 0 mm | - | 424 W/m² | - |
| 1778350736 | 21.67° C | 83% | 1017.5 hPa | 0 mm | - | 312 W/m² | - |
| 1778350433 | 21.67° C | 83% | 1017.6 hPa | 0 mm | - | 393 W/m² | - |
| 1778350131 | 21.11° C | 84% | 1017.7 hPa | 0 mm | - | 354 W/m² | - |
| 1778349826 | 21.11° C | 83% | 1017.8 hPa | 0 mm | - | 336 W/m² | - |
| 1778349523 | 20.56° C | 86% | 1017.6 hPa | 0 mm | - | 482 W/m² | - |
| 1778349220 | 20.56° C | 87% | 1018 hPa | 0 mm | - | 202 W/m² | - |
| 1778348916 | 20.56° C | 88% | 1018.1 hPa | 0 mm | - | 177 W/m² | - |
| 1778348612 | 20.56° C | 89% | 1018.1 hPa | 0 mm | - | 177 W/m² | - |
| 1778348307 | 20.56° C | 89% | 1018.2 hPa | 0 mm | - | 319 W/m² | - |
| 1778348003 | 20.56° C | 86% | 1018.1 hPa | 0 mm | - | 264 W/m² | - |
| 1778347700 | 20° C | 89% | 1018.3 hPa | 0 mm | - | 353 W/m² | - |
| 1778347397 | 20° C | 89% | 1018.4 hPa | 0 mm | - | 298 W/m² | - |
* Rain latest hour (hover to see other rain measurements)
** Current wind speed in m/s (hover to see current wind gust speed)